Weather History for Hagerstown, MD

Change the Weather History Date:

Wednesday, August 7, 2013

  Actual Average Record
Temperature  
Mean Temperature 75 °F -  
Max Temperature 82 °F 82 °F 96 °F (2001)
Min Temperature 68 °F 63 °F 53 °F (1997)
Cooling Degree Days 10    
Month to date cooling degree days 45  
Year to date cooling degree days 790  
Since 1 June cooling degree days 673  
Growing Degree Days 25 (Base 50)    
Moisture  
Dew Point 68 °F    
Average Humidity 79    
Maximum Humidity 93    
Minimum Humidity 65    
Precipitation  
Precipitation 0.00 in - - ()
Month to date precipitation 0.24  
Year to date precipitation 17.72  
Sea Level Pressure  
Sea Level Pressure 30.06 in    
Wind  
Wind Speed 6 mph (SSE)    
Max Wind Speed 14 mph    
Max Gust Speed 16 mph    
Visibility 7 miles    
Events Rain , Thunderstorm    
Averages and records for this station are not official NWS values.
T = Trace of Precipitation, MM = Missing Value Source: NWS Daily Summary

Daily Weather History Graph

Daily Weather History Graph

Search for Another Location

Airport:

Trip Planner

Search our weather history database for the weather conditions in past years. The results will help you decide how hot, cold, wet, or windy it might be!

Date:

Astronomy

Aug. 07, 2013 Rise Set
Actual Time 6:15 AM EDT 8:16 PM EDT
Civil Twilight 5:46 AM EDT 8:46 PM EDT
Nautical Twilight 5:10 AM EDT 9:22 PM EDT
Astronomical Twilight 4:30 AM EDT 10:01 PM EDT
Moon 7:02 AM EDT (8/7) 8:23 PM EDT (8/7)
Length of Visible Light 15h 00m
Length of Day
14h 01m
New Moon, 1% of the Moon is Illuminated
Aug 7
New Moon
Aug 14
First Quarter
Aug 20
Full
Aug 28
Last Quarter
Sep 5
New

Hourly Weather History & Observations

Time (EDT) Temp. Heat Index Dew Point Humidity Pressure Visibility Wind Dir Wind Speed Gust Speed Precip Events Conditions
12:53 AM 69.1 °F - 64.9 °F 87% 30.10 in 8.0 mi SE 4.6 mph - N/A   Overcast
1:33 AM 68.0 °F - 64.4 °F 88% 30.07 in 7.0 mi ESE 4.6 mph - N/A   Mostly Cloudy
1:53 AM 68.0 °F - 64.9 °F 90% 30.09 in 7.0 mi SE 5.8 mph - N/A   Mostly Cloudy
2:17 AM 68.0 °F - 64.4 °F 88% 30.07 in 7.0 mi SSE 4.6 mph - N/A   Overcast
2:53 AM 68.0 °F - 66.0 °F 93% 30.09 in 6.0 mi SSE 4.6 mph - N/A   Overcast
3:26 AM 68.0 °F - 66.2 °F 94% 30.07 in 6.0 mi SE 3.5 mph - N/A   Overcast
3:53 AM 69.1 °F - 66.0 °F 90% 30.09 in 6.0 mi SE 3.5 mph - N/A   Overcast
4:53 AM 68.0 °F - 64.9 °F 90% 30.08 in 6.0 mi Calm Calm - N/A   Overcast
5:21 AM 68.0 °F - 64.4 °F 88% 30.06 in 5.0 mi Calm Calm - N/A   Overcast
5:53 AM 69.1 °F - 66.0 °F 90% 30.08 in 6.0 mi SE 5.8 mph - N/A   Overcast
6:42 AM 68.0 °F - 66.2 °F 94% 30.07 in 2.0 mi ESE 3.5 mph - N/A   Overcast
6:53 AM 68.0 °F - 66.9 °F 96% 30.09 in 2.5 mi Calm Calm - N/A   Overcast
7:00 AM 68.0 °F - 66.2 °F 94% 30.07 in 3.0 mi ESE 3.5 mph - N/A   Overcast
7:53 AM 69.1 °F - 66.9 °F 93% 30.08 in 3.0 mi ESE 5.8 mph - N/A   Overcast
8:53 AM 69.1 °F - 66.9 °F 93% 30.09 in 5.0 mi SSE 8.1 mph - N/A   Overcast
9:53 AM 70.0 °F - 66.9 °F 90% 30.08 in 4.0 mi SSE 6.9 mph - N/A   Overcast
10:53 AM 71.1 °F - 68.0 °F 90% 30.09 in 10.0 mi South 5.8 mph - N/A   Overcast
11:44 AM 73.4 °F - 68.0 °F 83% 30.07 in 10.0 mi South 8.1 mph - N/A   Overcast
11:53 AM 73.0 °F - 68.0 °F 84% 30.09 in 10.0 mi South 9.2 mph - N/A   Overcast
12:51 PM 75.2 °F - 68.0 °F 78% 30.06 in 10.0 mi South 11.5 mph - N/A   Overcast
12:53 PM 75.9 °F - 68.0 °F 76% 30.07 in 10.0 mi South 9.2 mph - N/A   Overcast
1:01 PM 75.2 °F - 68.0 °F 78% 30.05 in 10.0 mi South 6.9 mph - N/A   Overcast
1:09 PM 75.2 °F - 68.0 °F 78% 30.04 in 10.0 mi South 11.5 mph - N/A   Overcast
1:21 PM 75.2 °F - 68.0 °F 78% 30.04 in 10.0 mi SSE 10.4 mph - N/A   Overcast
1:46 PM 75.2 °F - 68.0 °F 78% 30.05 in 10.0 mi SSE 11.5 mph - N/A   Overcast
1:53 PM 75.9 °F - 68.0 °F 76% 30.06 in 10.0 mi SSE 11.5 mph - N/A   Overcast
2:41 PM 77.0 °F - 68.0 °F 74% 30.04 in 10.0 mi South 8.1 mph - N/A   Overcast
2:53 PM 78.1 °F - 69.1 °F 74% 30.05 in 10.0 mi South 8.1 mph - N/A   Overcast
3:53 PM 81.0 °F 84.1 °F 69.1 °F 67% 30.02 in 10.0 mi South 10.4 mph - N/A   Mostly Cloudy
4:53 PM 82.0 °F 85.5 °F 69.1 °F 65% 30.01 in 10.0 mi SSE 10.4 mph - N/A   Partly Cloudy
5:53 PM 81.0 °F 84.1 °F 69.1 °F 67% 30.00 in 10.0 mi SE 11.5 mph - N/A   Clear
6:53 PM 80.1 °F 82.9 °F 69.1 °F 69% 30.01 in 10.0 mi South 6.9 mph - N/A   Clear
7:53 PM 77.0 °F - 71.1 °F 82% 30.02 in 10.0 mi South 6.9 mph - 0.01 in   Mostly Cloudy
8:46 PM 75.2 °F - 71.6 °F 89% 30.03 in 7.0 mi Calm Calm - 0.02 in Rain , Thunderstorm Light Thunderstorms and Rain
8:53 PM 75.9 °F - 72.0 °F 87% 30.05 in 5.0 mi Calm Calm - 0.03 in Rain , Thunderstorm Light Thunderstorms and Rain
9:16 PM 75.2 °F - 71.6 °F 89% 30.05 in 5.0 mi West 3.5 mph - 0.03 in Rain Light Rain
9:53 PM 73.9 °F - 72.0 °F 93% 30.06 in 7.0 mi NNW 5.8 mph - 0.04 in   Mostly Cloudy
10:19 PM 73.4 °F - 71.6 °F 94% 30.03 in 7.0 mi Calm Calm - N/A   Mostly Cloudy
10:53 PM 73.0 °F - 71.1 °F 93% 30.06 in 7.0 mi Calm Calm - 0.00 in   Partly Cloudy
11:10 PM 71.6 °F - 71.6 °F 100% 30.03 in 6.0 mi NE 5.8 mph - N/A   Mostly Cloudy
11:20 PM 71.6 °F - 69.8 °F 94% 30.03 in 8.0 mi ENE 6.9 mph - N/A   Scattered Clouds
11:27 PM 71.6 °F - 71.6 °F 100% 30.03 in 5.0 mi East 5.8 mph - N/A   Mostly Cloudy
11:40 PM 71.6 °F - 71.6 °F 100% 30.03 in 5.0 mi East 3.5 mph - N/A   Partly Cloudy
11:53 PM 72.0 °F - 71.1 °F 97% 30.05 in 6.0 mi East 5.8 mph - N/A   Partly Cloudy